Regional Weather Roundup
Issued by NWS Charleston, SC

Current Version | Previous Version | Graphics & Text | Print | Product List | Glossary On
Versions: 1 2 3 4 5 6 7 8 9 10 11 12 13 14 15 16 17 18 19 20 21 22 23 24 25 26 27 28 29 30 31 32 33 34 35 36 37 38 39 40 41 42 43 44 45 46 47 48 49 50
000
ASUS42 KCHS 300727
RWRCHS

REGIONAL WEATHER ROUNDUP
NATIONAL WEATHER SERVICE CHARLESTON SC
300 AM EDT SAT MAY 30 2015

NOTE: "FAIR" INDICATES FEW OR NO CLOUDS BELOW 12,000 FEET WITH NO
SIGNIFICANT WEATHER AND/OR OBSTRUCTIONS TO VISIBILITY.

NOT ALL STATIONS ARE QUALITY CONTROLLED BY THE NATIONAL
WEATHER SERVICE. USE DATA WITH CAUTION...ESPECIALLY
DEWPOINT OBSERVATIONS.

SCZ027-030-031-034>040-042>050-300800-
...SOUTHEAST SOUTH CAROLINA...

CITY           SKY/WX    TMP DP  RH WIND       PRES   REMARKS
N CHARLESTON   PTCLDY    70  68  93 NE5       30.13F
WATERFRONT PAR   N/A     76  71  84 E10       30.11F
MOUNT PLEASANT LGT RAIN  68  68 100 CALM      30.13F
JOHNS ISLAND   SUNNY     73  70  88 E5        30.13F
PINOPOLIS      NOT AVBL
MONCKS CORNER  FAIR      68  64  88 CALM      30.14F FOG
SUMMERVILLE    CLOUDY    66  66 100 CALM      30.15F FOG
BEAUFORT MCAS  CLEAR     69  67  93 N3        30.13F
BEAUFORT ARPT  FAIR      70  70 100 CALM      30.12F
HILTON HEAD IS MOCLDY    75  72  88 NE5       30.13F
WALTERBORO     SUNNY     63  61  94 CALM      30.15F
ALLENDALE      FAIR      68  66  94 CALM      30.14S

...SOUTHERN MIDLANDS AND PEE DEE...

CITY           SKY/WX    TMP DP  RH WIND       PRES   REMARKS
GEORGETOWN     NOT AVBL
KINGSTREE      NOT AVBL
ORANGEBURG     CLEAR     67  65  93 CALM      30.16S
BARNWELL       FAIR      66  64  94 CALM      30.16F
AIKEN          FAIR      64  61  88 CALM      30.20F
MANNING        FAIR      63  59  88 CALM      30.15F
COLUMBIA       PTCLDY    72  64  76 CALM      30.15F
SUMTER         CLEAR     68  67  94 CALM      30.15S
FLORENCE       CLEAR     68  66  93 CALM      30.16F
MYRTLE BEACH   PTCLDY    73  66  78 SE7       30.17F
N MYRTLE BEACH PTCLDY    75  68  78 SE6       30.15F

$$

GAZ063-065-086>088-099>101-113>116-118-119-134>141-150-300800-
...SOUTHEAST GEORGIA...

CITY           SKY/WX    TMP DP  RH WIND       PRES   REMARKS
SAVANNAH ARPT  CLEAR     68  66  93 NE5       30.12F
HUNTER AAF     CLEAR     73  71  92 CALM      30.10F
FORT STEWART   CLEAR     67  65  93 CALM      30.10F
STATESBORO     CLEAR     65  32  28 CALM      30.13F
SYLVANIA       SUNNY     67  67  99 CALM      30.15S
CLAXTON        FAIR      64  64 100 CALM      30.13F

...CSRA...CENTRAL AND FAR SOUTHEAST GEORGIA...

CITY           SKY/WX    TMP DP  RH WIND       PRES   REMARKS
THOMSON        PTCLDY    70  69  96 CALM      30.20S
AUGUSTA-BUSH   CLEAR     65  64  97 CALM      30.15S FOG
AUGUSTA-DANIEL CLEAR     72  65  78 SE5       30.16F
SWAINSBORO     CLOUDY   N/A N/A N/A CALM      30.14F
VIDALIA        CLEAR     70  68  94 E3        30.13F
EASTMAN        FAIR      70  70 100 CALM      30.15F
HAZLEHURST     FAIR      72  69  90 E3        30.11F
ALMA           CLEAR     68  66  93 CALM      30.12S
WAYCROSS       CLEAR     69  68  98 CALM      30.10F
JESUP          FAIR      70  68  94 CALM      30.11F
BAXLEY         FAIR      72  68  88 CALM      30.11F
BRUNSWICK        N/A     66  64  94 CALM      30.11F VSB 1/2
SAINT SIMONS   NOT AVBL

$$

SCZ027-028-034-036>038-045-046-048>050-GAZ119-141-300800-
...LAKE AND SUPPLEMENTAL COASTAL OBSERVATIONS...

STATION/POSITION TIME  TEMP    WIND        PRES    WAVE   SWELL
                       AIR SEA DIR/SP/G            HT/PER HT/PER/DIR
                 (UTC) (F)     (DEG/KT/KT) (MB)    (FT/S) (FT/S/D)
UPR LAKE MARION  NOT AVBL
WINYAH BAY       0600   75     110/  5     1020.0F
LAKE MURRAY      0600   73     140/  6/  8 1021.0S
ACE BASIN NERRS  NOT AVBL
FORT PULASKI     0700   77 79   60/ 11/ 13 1020.3F
SAPELO ISLAND    0700   69      30/  2     1020.0S

$$

ANZ835-935-AMZ111-154-330-350-352-354-370-450-454-472-300800-
...C-MAN AND BUOY OBSERVATIONS...

STATION/POSITION TIME  TEMP    WIND        PRES    WAVE   SWELL
                       AIR SEA DIR/SP/G            HT/PER HT/PER/DIR
                 (UTC) (F)     (DEG/KT/KT) (MB)    (FT/S) (FT/S/D)
BUOY 41004       0650   77 78   90/ 14/ 16 1019.7F   5/ 8   3/ 8
BUOY 41008       0650   76 78   70/  8/ 10 1019.7F   3/ 9   3/110/ 9
FOLLY BEACH CMAN 0700   76     100/ 12/ 13 1020.4F
CAPERS NEARSHORE 0608   76     110/ 12/ 16 1020.6F
FRIPP NEARSHORE  0600   77      90/ 12/ 14 1020.0F


STATION/POSITION TIME  TEMP    WIND        PRES    WAVE   SWELL
                       AIR SEA DIR/SP/G            HT/PER HT/PER/DIR
                 (UTC) (F)     (DEG/KT/KT) (MB)    (FT/S) (FT/S/D)
5E ST. MARYS GA  0621      79                N/A     3/ 9
FRYING PAN BUOY  0650   77 75  140/ 14/ 16 1021.5F   4/ 8   3/100/ 8
BUOY 41025       0650   76 80  140/ 10/ 12 1022.2F   4/ 9   3/100/ 9
CAPE LOOKOUT NC  0700   74     130/  5/  6 1021.7F
BUOY 41002       0650   74 74   80/ 14/ 16 1021.0F   6/ 9   5/ 90/ 9
BUOY 41010       0620   78 79   80/ 14/ 16 1018.3F
ST AUGUSTINE FL  0700   76 79   70/  7/  8 1019.4F


$$


USA.gov is the U.S. government's official web portal to all federal, state and local government web resources and services.